Regional Weather Roundup
Issued by NWS

Home | Current Version | Previous Version | Graphics & Text | Print | Product List | Glossary On
Versions: 1 2 3 4 5 6 7 8 9 10 11 12 13 14 15 16 17 18 19 20 21 22 23 24 25 26 27 28
000
ASUS45 KCYS 242110
RWRWY

WYOMING REGIONAL WEATHER ROUNDUP
NATIONAL WEATHER SERVICE CHEYENNE WY
300 PM MDT SUN SEP 24 2017

NOTE:  "FAIR" INDICATES FEW OR NO CLOUDS BELOW 12,000 FEET
WITH NO SIGNIFICANT WEATHER AND/OR OBSTRUCTIONS TO VISIBILITY.

WYZ001-242200-
YELLOWSTONE NATIONAL PARK

CITY           SKY/WX    TMP DP  RH WIND       PRES   REMARKS
LK YELLOWSTONE NOT AVBL
W YELLOWSTONE  NOT AVBL

$$
WYZ002>013-054>058-071-098>099-242200-
NORTHERN WYOMING

CITY           SKY/WX    TMP DP  RH WIND       PRES   REMARKS
JACKSON        FAIR      48  33  56 E20       29.97R
CODY           CLOUDY    44  32  62 N6        30.10R
GREYBULL       CLOUDY    51  39  63 NW8       30.05S
WORLAND        CLOUDY    45  41  86 CALM      30.06S
SHERIDAN       CLOUDY    47  39  74 NE6       30.10S
BUFFALO        CLOUDY    43  35  73 N9        30.10F
GILLETTE       CLOUDY    43  39  86 NE12      30.09R
HULETT         CLOUDY    43  39  87 N6        30.10R
NEWCASTLE      MOCLDY    50  37  62 N7        30.04S

$$
WYZ014>020-022>026-101>103-242200-
CENTRAL WYOMING

CITY           SKY/WX    TMP DP  RH WIND       PRES   REMARKS
BIG PINEY      CLOUDY    39  37  92 NW5       30.00R
PINEDALE       LGT SNOW  34  34 100 NE5       30.02R WCI  30
DUBOIS         CLOUDY    37  32  81 SE14G21   30.03S WCI  29
LANDER         LGT RAIN  38  36  92 W3        30.07R FOG
RIVERTON       LGT RAIN  39  38  96 NE5       30.07S
CASPER         CLOUDY    41  39  93 NE13      30.06R FOG
DOUGLAS        LGT RAIN  43  40  89 N7        30.06R FOG

$$
WYZ021-027>030-104>119-242200-
SOUTHERN WYOMING

CITY           SKY/WX    TMP DP  RH WIND       PRES   REMARKS
EVANSTON       SNOW      34  34 100 N8        29.97R VSB 1/2 WCI  27
FORT BRIDGER   LGT RAIN  37  37 100 W7        29.98R WCI  32
ROCK SPRINGS   PTSUNNY   45  37  73 NE17G23   29.96F
DIXON          MOCLDY    49  39  68 NE8       29.98F
RAWLINS        LGT RAIN  42  38  85 NE17      29.99R
SARATOGA       CLOUDY    46  37  71 N7        29.99S
LARAMIE        PTSUNNY   49  37  63 E20       29.96S
CHEYENNE       CLOUDY    43  41  93 E10       30.02R FOG
TORRINGTON     CLOUDY    50  44  80 NE9       30.01S
PINE BLUFFS    CLOUDY    45  45 100 E7        30.03S FOG

$$




USA.gov is the U.S. government's official web portal to all federal, state and local government web resources and services.